| time (UTC) | temp C | wind direction | speed KPH | gust KPH | rain 1hr cm | rain 24hr cm | rain mn cm | humidity % | barometer mb |
| 20260506091501 | 15 | 360 | 0.0 | 3.2 | 0.00 | 0.00 | 0.00 | 80 | 1007.9 |
| 20260506090001 | 15 | 360 | 0.0 | 4.8 | 0.00 | 0.00 | 0.00 | 76 | 1007.9 |
| 20260506084600 | 16 | 99 | 1.6 | 8.0 | 0.00 | 0.00 | 0.00 | 66 | 1007.9 |
| 20260506083108 | 16 | 360 | 1.6 | 8.0 | 0.00 | 0.00 | 0.00 | 66 | 1008.1 |
| 20260506081558 | 14 | 329 | 0.0 | 0.0 | 0.00 | 0.00 | 0.00 | 75 | 1008.2 |
| 20260506073054 | 13 | 360 | 0.0 | 0.0 | 0.00 | 0.00 | 0.00 | 84 | 1007.9 |
| 20260506071553 | 13 | 328 | 0.0 | 0.0 | 0.00 | 0.00 | 0.00 | 85 | 1008.2 |
| 20260506061547 | 14 | 360 | 0.0 | 0.0 | 0.00 | 0.00 | 0.00 | 87 | 1008.7 |
| 20260506044535 | 15 | 332 | 0.0 | 3.2 | 0.00 | 0.00 | 0.00 | 77 | 1009.5 |
| 20260506043029 | 16 | 151 | 0.0 | 0.0 | 0.00 | 0.00 | 0.00 | 73 | 1009.3 |
| 20260506041526 | 17 | 151 | 0.0 | 3.2 | 0.00 | 0.00 | 0.00 | 69 | 1009.5 |
| 20260506040023 | 17 | 151 | 0.0 | 3.2 | 0.00 | 0.00 | 0.00 | 66 | 1009.7 |
| 20260506034522 | 18 | 149 | 0.0 | 11.3 | 0.00 | 0.00 | 0.00 | 65 | 1009.7 |
| 20260506033020 | 18 | 174 | 0.0 | 9.7 | 0.00 | 0.00 | 0.00 | 64 | 1009.4 |
| 20260506031520 | 18 | 236 | 3.2 | 8.0 | 0.00 | 0.00 | 0.00 | 64 | 1009.3 |
| 20260506030029 | 19 | 144 | 1.6 | 6.4 | 0.00 | 0.00 | 0.00 | 62 | 1009.4 |
| 20260506024534 | 20 | 143 | 0.0 | 6.4 | 0.00 | 0.00 | 0.00 | 60 | 1009.5 |
| 20260506023019 | 20 | 163 | 1.6 | 11.3 | 0.00 | 0.00 | 0.00 | 59 | 1009.6 |
| 20260506021518 | 20 | 200 | 1.6 | 9.7 | 0.00 | 0.00 | 0.00 | 59 | 1009.3 |
| 20260506020017 | 20 | 163 | 1.6 | 8.0 | 0.00 | 0.00 | 0.00 | 59 | 1009.3 |
| 20260506014519 | 20 | 105 | 1.6 | 9.7 | 0.00 | 0.00 | 0.00 | 58 | 1009.5 |
| 20260506013016 | 20 | 178 | 1.6 | 8.0 | 0.00 | 0.00 | 0.00 | 58 | 1009.4 |
| 20260506011516 | 20 | 129 | 0.0 | 6.4 | 0.00 | 0.00 | 0.00 | 59 | 1009.3 |
| 20260506010017 | 20 | 109 | 0.0 | 4.8 | 0.00 | 0.00 | 0.00 | 58 | 1009.0 |
| 20260506004515 | 21 | 190 | 0.0 | 9.7 | 0.00 | 0.00 | 0.00 | 55 | 1008.8 |
| 20260506003016 | 21 | 115 | 1.6 | 11.3 | 0.00 | 0.00 | 0.00 | 53 | 1008.8 |
| 20260506001517 | 21 | 169 | 4.8 | 9.7 | 0.00 | 0.00 | 0.00 | 52 | 1008.8 |
| 20260506000014 | 21 | 223 | 6.4 | 12.9 | 0.00 | 0.00 | 0.00 | 54 | 1008.8 |
| 20260505234521 | 21 | 188 | 1.6 | 8.0 | 0.00 | 0.00 | 0.00 | 52 | 1008.6 |
| 20260505233012 | 22 | 155 | 0.0 | 8.0 | 0.00 | 0.00 | 0.00 | 52 | 1008.5 |
| 20260505231512 | 22 | 182 | 0.0 | 6.4 | 0.00 | 0.00 | 0.00 | 51 | 1008.4 |
| 20260505230023 | 22 | 205 | 3.2 | 16.1 | 0.00 | 0.00 | 0.00 | 49 | 1008.4 |
| 20260505224511 | 22 | 165 | 3.2 | 9.7 | 0.00 | 0.00 | 0.00 | 50 | 1008.3 |
| 20260505223010 | 22 | 185 | 3.2 | 16.1 | 0.00 | 0.00 | 0.00 | 47 | 1008.1 |
| 20260505221510 | 22 | 281 | 3.2 | 12.9 | 0.00 | 0.00 | 0.00 | 49 | 1007.9 |
| 20260505220009 | 22 | 180 | 3.2 | 16.1 | 0.00 | 0.00 | 0.00 | 48 | 1007.9 |
| 20260505214508 | 22 | 137 | 14.5 | 27.4 | 0.00 | 0.00 | 0.00 | 49 | 1007.7 |
| 20260505213010 | 22 | 186 | 9.7 | 20.9 | 0.00 | 0.00 | 0.00 | 50 | 1007.5 |
| 20260505211510 | 23 | 122 | 9.7 | 22.5 | 0.00 | 0.00 | 0.00 | 51 | 1007.3 |
| 20260505210008 | 23 | 200 | 11.3 | 24.1 | 0.00 | 0.00 | 0.00 | 50 | 1007.5 |
| 20260505204504 | 23 | 142 | 9.7 | 22.5 | 0.00 | 0.00 | 0.00 | 52 | 1007.3 |
| 20260505203004 | 24 | 193 | 11.3 | 29.0 | 0.00 | 0.00 | 0.00 | 53 | 1007.2 |
| 20260505201507 | 22 | 163 | 8.0 | 25.7 | 0.00 | 0.00 | 0.00 | 53 | 1007.7 |
| 20260505200003 | 22 | 188 | 8.0 | 24.1 | 0.00 | 0.00 | 0.00 | 52 | 1007.3 |
| 20260505194502 | 22 | 179 | 12.9 | 20.9 | 0.00 | 0.00 | 0.00 | 52 | 1007.2 |
| 20260505193001 | 23 | 125 | 3.2 | 25.7 | 0.00 | 0.00 | 0.00 | 51 | 1007.1 |
| 20260505191625 | 23 | 175 | 14.5 | 30.6 | 0.00 | 0.00 | 0.00 | 51 | 1007.1 |
| 20260505190058 | 24 | 127 | 4.8 | 24.1 | 0.00 | 0.00 | 0.00 | 55 | 1007.0 |
| 20260505184555 | 23 | 192 | 16.1 | 30.6 | 0.00 | 0.00 | 0.00 | 52 | 1007.7 |
| 20260505183054 | 24 | 157 | 4.8 | 22.5 | 0.00 | 0.00 | 0.00 | 54 | 1007.8 |
| 20260505181553 | 23 | 217 | 12.9 | 24.1 | 0.00 | 0.00 | 0.00 | 54 | 1007.9 |
| 20260505174554 | 23 | 150 | 9.7 | 24.1 | 0.00 | 0.00 | 0.00 | 48 | 1008.4 |
| 20260505173048 | 23 | 154 | 6.4 | 22.5 | 0.00 | 0.00 | 0.00 | 48 | 1008.5 |
| 20260505171549 | 24 | 214 | 8.0 | 20.9 | 0.00 | 0.00 | 0.00 | 49 | 1008.3 |
| 20260505170043 | 23 | 175 | 8.0 | 24.1 | 0.00 | 0.00 | 0.00 | 52 | 1008.5 |
| 20260505164542 | 23 | 144 | 9.7 | 19.3 | 0.00 | 0.00 | 0.00 | 55 | 1008.7 |
| 20260505163038 | 23 | 176 | 6.4 | 27.4 | 0.00 | 0.00 | 0.00 | 53 | 1009.1 |
| 20260505161536 | 23 | 142 | 8.0 | 24.1 | 0.00 | 0.00 | 0.00 | 57 | 1009.4 |
| 20260505153026 | 22 | 135 | 8.0 | 25.7 | 0.00 | 0.00 | 0.00 | 55 | 1009.7 |
| 20260505151524 | 22 | 173 | 12.9 | 27.4 | 0.00 | 0.00 | 0.00 | 55 | 1009.6 |
| 20260505124508 | 19 | 200 | 6.4 | 19.3 | 0.00 | 0.00 | 0.00 | 60 | 1010.2 |
| 20260505123103 | 19 | 176 | 3.2 | 16.1 | 0.00 | 0.00 | 0.00 | 60 | 1010.1 |
| 20260505121601 | 19 | 194 | 4.8 | 9.7 | 0.00 | 0.00 | 0.00 | 64 | 1010.4 |
| 20260505120058 | 18 | 217 | 1.6 | 17.7 | 0.00 | 0.00 | 0.00 | 66 | 1010.1 |
| 20260505114559 | 17 | 194 | 3.2 | 14.5 | 0.00 | 0.00 | 0.00 | 66 | 1010.2 |
| 20260505113055 | 17 | 181 | 1.6 | 8.0 | 0.00 | 0.00 | 0.00 | 68 | 1010.5 |
| 20260505111549 | 17 | 177 | 0.0 | 4.8 | 0.00 | 0.00 | 0.00 | 67 | 1010.4 |
| 20260505101600 | 15 | 149 | 1.6 | 12.9 | 0.00 | 0.00 | 0.00 | 68 | 1009.6 |
| 20260505100059 | 16 | 173 | 3.2 | 11.3 | 0.00 | 0.00 | 0.00 | 68 | 1009.5 |
| 20260505094542 | 15 | 168 | 4.8 | 12.9 | 0.00 | 0.00 | 0.00 | 68 | 1009.3 |
| 20260505093042 | 15 | 185 | 4.8 | 11.3 | 0.00 | 0.00 | 0.00 | 68 | 1009.3 |